Regional Weather Roundup
Issued by NWS Tiyan, Guam

Home | Current Version | Previous Version | Text Only | Print | Product List | Glossary On
Versions: 1 2 3 4 5 6 7 8 9 10 11 12 13 14 15 16 17 18 19 20 21 22 23 24 25 26 27
000
ASGM40 PGUM 250612
RWRGUM
WEATHER ROUNDUP FOR THE MARIANAS
NATIONAL WEATHER SERVICE TIYAN GU
400 PM GSST FRI APR 25 2014

GUZ001>004-250700-
MARIANA ISLANDS-

CITY           SKY/WX    TMP DP  RH WIND       PRES   REMARKS
GUAM AIRPORT   MOSUNNY   86  72  62 E12G21    29.80S HX  92
ANDERSEN AFB   MOSUNNY   84  73  70 E16       29.80S HX  91
ROTA AIRPORT   MOSUNNY   84  73  70 E13       29.80S HX  91
TINIAN AP      MOSUNNY   84  72  65 E13       29.79S
SAIPAN AP      PTSUNNY   84  73  70 E14G20    29.80S HX  91

$$




USA.gov is the U.S. government's official web portal to all federal, state and local government web resources and services.